| time (UTC) | temp F | wind direction | speed MPH | gust MPH | rain 1hr in | rain 24hr in | rain mn in | humidity % | barometer mb |
| 20260905201233 | 80 | 85 | 4.0 | 9.0 | 0.00 | 0.00 | 0.00 | 42 | 1006.3 |
| 20260905200251 | 80 | 115 | 4.0 | 9.0 | 0.00 | 0.00 | 0.00 | 42 | 1006.6 |
| 20260905194137 | 81 | 134 | 1.0 | 5.0 | 0.00 | 0.00 | 0.00 | 40 | 1006.6 |
| 20260905193103 | 82 | 75 | 0.0 | 6.0 | 0.00 | 0.00 | 0.00 | 42 | 1006.6 |
| 20260905192111 | 82 | 127 | 2.0 | 6.0 | 0.00 | 0.00 | 0.00 | 41 | 1006.7 |
| 20260905191133 | 84 | 215 | 2.0 | 7.0 | 0.00 | 0.00 | 0.00 | 40 | 1006.8 |
| 20260905190114 | 82 | 25 | 2.0 | 10.0 | 0.00 | 0.00 | 0.00 | 41 | 1007.0 |
| 20260905185132 | 82 | 36 | 4.0 | 10.0 | 0.00 | 0.00 | 0.00 | 41 | 1007.2 |
| 20260905184148 | 82 | 50 | 2.0 | 9.0 | 0.00 | 0.00 | 0.00 | 41 | 1007.4 |
| 20260905180834 | 82 | 59 | 3.0 | 10.0 | 0.00 | 0.00 | 0.00 | 41 | 1008.0 |
| 20260905175829 | 84 | 154 | 3.0 | 8.0 | 0.00 | 0.00 | 0.00 | 40 | 1008.1 |
| 20260905174811 | 83 | 40 | 2.0 | 9.0 | 0.00 | 0.00 | 0.00 | 40 | 1008.3 |
| 20260905173821 | 81 | 115 | 3.0 | 9.0 | 0.00 | 0.00 | 0.00 | 42 | 1008.3 |
| 20260905172814 | 80 | 64 | 2.0 | 8.0 | 0.00 | 0.00 | 0.00 | 43 | 1008.3 |
| 20260905171823 | 81 | 152 | 3.0 | 8.0 | 0.00 | 0.00 | 0.00 | 44 | 1008.3 |
| 20260905170806 | 80 | 116 | 3.0 | 8.0 | 0.00 | 0.00 | 0.00 | 45 | 1008.3 |
| 20260905165749 | 80 | 139 | 3.0 | 6.0 | 0.00 | 0.00 | 0.00 | 46 | 1008.3 |
| 20260905164741 | 81 | 146 | 2.0 | 5.0 | 0.00 | 0.00 | 0.00 | 45 | 1008.2 |
| 20260905163744 | 80 | 4 | 2.0 | 5.0 | 0.00 | 0.00 | 0.00 | 44 | 1008.2 |
| 20260905162726 | 80 | 90 | 1.0 | 6.0 | 0.00 | 0.00 | 0.00 | 46 | 1008.4 |
| 20260905160603 | 79 | 359 | 2.0 | 5.0 | 0.00 | 0.00 | 0.00 | 42 | 1008.2 |
| 20260905155544 | 77 | 157 | 1.0 | 4.0 | 0.00 | 0.00 | 0.00 | 49 | 1008.2 |
| 20260905153416 | 73 | 163 | 2.0 | 5.0 | 0.00 | 0.00 | 0.00 | 62 | 1008.3 |
| 20260905152356 | 73 | 221 | 1.0 | 5.0 | 0.00 | 0.00 | 0.00 | 65 | 1008.4 |
| 20260905151347 | 71 | 154 | 1.0 | 4.0 | 0.00 | 0.00 | 0.00 | 66 | 1008.4 |
| 20260905150344 | 70 | 4 | 1.0 | 4.0 | 0.00 | 0.00 | 0.00 | 68 | 1008.3 |
| 20260905145407 | 70 | 179 | 2.0 | 4.0 | 0.00 | 0.00 | 0.00 | 69 | 1008.3 |
| 20260905144430 | 69 | 198 | 2.0 | 4.0 | 0.00 | 0.00 | 0.00 | 70 | 1008.2 |
| 20260905143439 | 68 | 182 | 2.0 | 5.0 | 0.00 | 0.00 | 0.00 | 73 | 1008.2 |
| 20260905142410 | 67 | 217 | 3.0 | 6.0 | 0.00 | 0.00 | 0.00 | 75 | 1008.2 |
| 20260905140247 | 66 | 164 | 1.0 | 4.0 | 0.00 | 0.00 | 0.00 | 72 | 1007.9 |
| 20260905135300 | 66 | 221 | 2.0 | 4.0 | 0.00 | 0.00 | 0.00 | 73 | 1007.7 |
| 20260905134318 | 65 | 218 | 2.0 | 4.0 | 0.00 | 0.00 | 0.00 | 74 | 1007.6 |
| 20260905133244 | 64 | 231 | 3.0 | 4.0 | 0.00 | 0.00 | 0.00 | 77 | 1007.6 |
| 20260905132233 | 64 | 221 | 2.0 | 4.0 | 0.00 | 0.00 | 0.00 | 79 | 1007.4 |
| 20260905131236 | 64 | 211 | 1.0 | 3.0 | 0.00 | 0.00 | 0.00 | 78 | 1007.3 |
| 20260905125051 | 65 | 225 | 1.0 | 5.0 | 0.00 | 0.00 | 0.00 | 74 | 1007.0 |
| 20260905124111 | 66 | 4 | 3.0 | 10.0 | 0.00 | 0.00 | 0.00 | 73 | 1006.9 |
| 20260905123127 | 66 | 184 | 5.0 | 10.0 | 0.00 | 0.00 | 0.00 | 72 | 1006.8 |
| 20260905122152 | 66 | 229 | 3.0 | 7.0 | 0.00 | 0.00 | 0.00 | 73 | 1006.8 |
| 20260905121135 | 66 | 208 | 3.0 | 6.0 | 0.00 | 0.00 | 0.00 | 72 | 1006.8 |
| 20260905120109 | 66 | 209 | 3.0 | 9.0 | 0.00 | 0.00 | 0.00 | 71 | 1006.8 |
| 20260905113924 | 67 | 227 | 5.0 | 9.0 | 0.00 | 0.00 | 0.00 | 70 | 1006.7 |
| 20260905112930 | 67 | 204 | 4.0 | 9.0 | 0.00 | 0.00 | 0.00 | 71 | 1006.7 |
| 20260905111954 | 67 | 194 | 6.0 | 11.0 | 0.00 | 0.00 | 0.00 | 70 | 1006.6 |
| 20260905105844 | 67 | 168 | 5.0 | 11.0 | 0.00 | 0.00 | 0.00 | 69 | 1006.7 |
| 20260905103647 | 68 | 167 | 6.0 | 13.0 | 0.00 | 0.00 | 0.00 | 69 | 1006.6 |
| 20260905102711 | 68 | 211 | 7.0 | 13.0 | 0.00 | 0.00 | 0.00 | 68 | 1006.7 |
| 20260905101641 | 68 | 217 | 8.0 | 13.0 | 0.00 | 0.00 | 0.00 | 68 | 1006.6 |
| 20260905100639 | 67 | 215 | 6.0 | 12.0 | 0.00 | 0.00 | 0.00 | 69 | 1006.6 |
| 20260905095639 | 66 | 222 | 4.0 | 9.0 | 0.00 | 0.00 | 0.00 | 72 | 1006.5 |
| 20260905093505 | 66 | 192 | 4.0 | 8.0 | 0.00 | 0.00 | 0.00 | 72 | 1006.5 |
| 20260905092458 | 67 | 195 | 5.0 | 14.0 | 0.00 | 0.00 | 0.00 | 71 | 1006.6 |
| 20260905091516 | 67 | 4 | 5.0 | 14.0 | 0.00 | 0.00 | 0.00 | 71 | 1006.5 |
| 20260905090535 | 67 | 201 | 4.0 | 14.0 | 0.00 | 0.14 | 0.00 | 70 | 1006.6 |
| 20260905085556 | 67 | 211 | 4.0 | 8.0 | 0.00 | 0.36 | 0.00 | 69 | 1006.6 |
| 20260905083429 | 67 | 206 | 3.0 | 9.0 | 0.00 | 0.39 | 0.00 | 71 | 1006.7 |
| 20260905082446 | 66 | 4 | 3.0 | 5.0 | 0.00 | 0.39 | 0.00 | 71 | 1006.8 |
| 20260905081435 | 66 | 231 | 2.0 | 5.0 | 0.00 | 0.39 | 0.00 | 72 | 1006.7 |
| 20260905080404 | 67 | 181 | 2.0 | 4.0 | 0.00 | 0.39 | 0.00 | 71 | 1006.8 |
| 20260905075357 | 67 | 199 | 2.0 | 4.0 | 0.00 | 0.39 | 0.00 | 70 | 1006.9 |
| 20260905074332 | 67 | 211 | 1.0 | 3.0 | 0.00 | 0.39 | 0.00 | 70 | 1006.9 |
| 20260905073338 | 68 | 161 | 0.0 | 1.0 | 0.00 | 0.39 | 0.00 | 67 | 1007.1 |
| 20260905071215 | 69 | 213 | 3.0 | 7.0 | 0.00 | 0.39 | 0.00 | 67 | 1007.1 |
| 20260905070154 | 68 | 211 | 4.0 | 6.0 | 0.00 | 0.39 | 0.00 | 69 | 1007.1 |
| 20260905065127 | 68 | 225 | 4.0 | 6.0 | 0.00 | 0.39 | 0.00 | 70 | 1007.0 |
| 20260905062939 | 69 | 237 | 4.0 | 8.0 | 0.00 | 0.39 | 0.00 | 69 | 1007.1 |
| 20260905061919 | 69 | 194 | 3.0 | 5.0 | 0.00 | 0.39 | 0.00 | 68 | 1007.1 |
| 20260905060844 | 69 | 215 | 3.0 | 5.0 | 0.00 | 0.39 | 0.00 | 67 | 1007.2 |
| 20260905055821 | 69 | 229 | 3.0 | 4.0 | 0.00 | 0.39 | 0.38 | 68 | 1007.2 |
| 20260905054811 | 69 | 233 | 2.0 | 3.0 | 0.00 | 0.39 | 0.38 | 67 | 1007.3 |
| 20260905053827 | 69 | 214 | 2.0 | 3.0 | 0.00 | 0.39 | 0.38 | 67 | 1007.3 |
| 20260905052806 | 69 | 225 | 3.0 | 4.0 | 0.00 | 0.39 | 0.38 | 67 | 1007.3 |
| 20260905051823 | 69 | 231 | 3.0 | 4.0 | 0.00 | 0.39 | 0.38 | 68 | 1007.2 |
| 20260905050754 | 69 | 261 | 2.0 | 4.0 | 0.00 | 0.39 | 0.38 | 67 | 1007.4 |
| 20260905045809 | 70 | 219 | 1.0 | 3.0 | 0.00 | 0.39 | 0.38 | 66 | 1007.4 |
| 20260905044810 | 70 | 179 | 1.0 | 3.0 | 0.00 | 0.39 | 0.38 | 64 | 1007.3 |
| 20260905043747 | 70 | 209 | 1.0 | 5.0 | 0.00 | 0.39 | 0.38 | 63 | 1007.3 |
| 20260905042753 | 71 | 4 | 2.0 | 5.0 | 0.00 | 0.39 | 0.38 | 62 | 1007.2 |
| 20260905041812 | 71 | 167 | 3.0 | 8.0 | 0.00 | 0.39 | 0.38 | 61 | 1007.2 |
| 20260905035652 | 72 | 179 | 3.0 | 5.0 | 0.00 | 0.39 | 0.38 | 60 | 1007.2 |
| 20260905034716 | 72 | 190 | 2.0 | 7.0 | 0.00 | 0.39 | 0.38 | 60 | 1007.1 |
| 20260905032555 | 71 | 167 | 3.0 | 8.0 | 0.00 | 0.39 | 0.38 | 62 | 1007.1 |
| 20260905031600 | 71 | 217 | 2.0 | 4.0 | 0.00 | 0.39 | 0.38 | 63 | 1007.1 |
| 20260905030617 | 70 | 214 | 1.0 | 2.0 | 0.00 | 0.39 | 0.38 | 65 | 1006.9 |
| 20260905025621 | 71 | 57 | 0.0 | 0.0 | 0.00 | 0.39 | 0.38 | 65 | 1006.8 |
| 20260905023501 | 71 | 43 | 0.0 | 0.0 | 0.00 | 0.39 | 0.38 | 65 | 1006.6 |
| 20260905022520 | 72 | 144 | 0.0 | 5.0 | 0.00 | 0.39 | 0.38 | 63 | 1006.3 |
| 20260905021515 | 72 | 121 | 0.0 | 0.0 | 0.00 | 0.39 | 0.38 | 61 | 1006.1 |
| 20260905020445 | 73 | 121 | 0.0 | 0.0 | 0.00 | 0.39 | 0.38 | 60 | 1006.1 |
| 20260905015413 | 74 | 121 | 0.0 | 0.0 | 0.00 | 0.39 | 0.38 | 56 | 1006.0 |
| 20260905014431 | 75 | 121 | 1.0 | 3.0 | 0.00 | 0.39 | 0.38 | 55 | 1006.1 |
| 20260905012317 | 76 | 187 | 2.0 | 5.0 | 0.00 | 0.39 | 0.38 | 52 | 1006.1 |
| 20260905011327 | 76 | 230 | 1.0 | 6.0 | 0.00 | 0.39 | 0.38 | 52 | 1006.0 |
| 20260905010301 | 76 | 265 | 3.0 | 10.0 | 0.00 | 0.39 | 0.38 | 51 | 1006.0 |
| 20260905005238 | 77 | 264 | 5.0 | 10.0 | 0.00 | 0.39 | 0.38 | 48 | 1005.8 |
| 20260905004214 | 78 | 288 | 5.0 | 10.0 | 0.00 | 0.39 | 0.38 | 48 | 1005.8 |
| 20260905003204 | 78 | 279 | 7.0 | 12.0 | 0.00 | 0.39 | 0.38 | 48 | 1005.6 |
| 20260905002222 | 78 | 288 | 6.0 | 12.0 | 0.00 | 0.39 | 0.38 | 51 | 1005.5 |
| 20260905001218 | 77 | 278 | 6.0 | 16.0 | 0.00 | 0.39 | 0.38 | 53 | 1005.5 |
| 20260905000144 | 76 | 282 | 8.0 | 19.0 | 0.00 | 0.39 | 0.38 | 54 | 1005.3 |
| 20260904235114 | 77 | 304 | 11.0 | 24.0 | 0.00 | 0.39 | 0.38 | 53 | 1005.2 |
| 20260904234117 | 79 | 283 | 8.0 | 24.0 | 0.00 | 0.39 | 0.38 | 49 | 1005.1 |
| 20260904233121 | 83 | 185 | 8.0 | 17.0 | 0.00 | 0.39 | 0.38 | 43 | 1005.0 |
| 20260904232128 | 82 | 225 | 9.0 | 17.0 | 0.00 | 0.39 | 0.38 | 43 | 1004.8 |
| 20260904231127 | 83 | 162 | 8.0 | 16.0 | 0.00 | 0.39 | 0.38 | 43 | 1004.9 |
| 20260904230053 | 83 | 173 | 8.0 | 19.0 | 0.00 | 0.39 | 0.38 | 42 | 1005.0 |
| 20260904225033 | 81 | 220 | 10.0 | 19.0 | 0.00 | 0.39 | 0.38 | 45 | 1005.0 |
| 20260904224020 | 84 | 175 | 8.0 | 19.0 | 0.00 | 0.39 | 0.38 | 42 | 1005.1 |
| 20260904222952 | 84 | 244 | 7.0 | 19.0 | 0.00 | 0.39 | 0.38 | 44 | 1005.0 |
| 20260904221942 | 84 | 237 | 9.0 | 18.0 | 0.00 | 0.39 | 0.38 | 42 | 1005.0 |
| 20260904215842 | 82 | 231 | 7.0 | 13.0 | 0.00 | 0.39 | 0.38 | 45 | 1005.3 |
| 20260904213745 | 83 | 180 | 8.0 | 18.0 | 0.00 | 0.39 | 0.38 | 46 | 1005.6 |
| 20260904212810 | 82 | 4 | 8.0 | 17.0 | 0.00 | 0.39 | 0.38 | 48 | 1005.6 |
| 20260904211744 | 81 | 4 | 10.0 | 17.0 | 0.00 | 0.39 | 0.38 | 48 | 1005.6 |
| 20260904210740 | 81 | 213 | 9.0 | 18.0 | 0.00 | 0.39 | 0.38 | 48 | 1005.7 |
| 20260904205713 | 82 | 211 | 9.0 | 18.0 | 0.00 | 0.39 | 0.38 | 46 | 1005.9 |
| 20260904204707 | 82 | 181 | 9.0 | 18.0 | 0.00 | 0.39 | 0.38 | 47 | 1005.9 |
| 20260904203704 | 80 | 166 | 9.0 | 18.0 | 0.00 | 0.39 | 0.38 | 53 | 1006.1 |
| 20260904202708 | 79 | 222 | 6.0 | 16.0 | 0.00 | 0.39 | 0.38 | 54 | 1006.3 |